Tracking 31027 objects as of 19-Jul-2025
HD Live streaming from Space Station
objects crossing your sky now

NOAA 16 DEB

Track NOAA 16 DEB now!
10-day predictions


NORAD ID: 41138
Int'l Code: 2000-055BV
Perigee: 809.7 km
Apogee: 824.1 km
Inclination: 98.7 °
Period: 101.1 minutes
Semi major axis: 7187 km
RCS: Unknown
Launch date: September 21, 2000
Source: United States (US)
Launch site: AIR FORCE WESTERN TEST RANGE (AFWTR)

Note: This is SATELLITE DEBRIS
Your satellite tracking list
SKOLTECH-B2
Track 1 satellite(s)




NASA's NSSDC Master Catalog

Two Line Element Set (TLE):
1 41138U 00055BV  25199.69066148  .00001053  00000-0  47189-3 0  9994
2 41138  98.7187 282.1998 0009999 261.5761  98.4285 14.24630021496752
Source of the keplerian elements: AFSPC